Terminal Aerodrome Forecast
Issued by NWS Lake Charles, LA

Home | Current Version | Previous Version | Text Only | Print | Product List | Glossary On
Versions: 1 2 3 4 5 6 7 8 9 10 11 12 13 14 15 16 17 18 19 20
000
FTUS44 KLCH 311700
TAFLFT
TAF
KLFT 311720Z 3118/0118 35014G22KT P6SM SKC
     FM010000 01007KT P6SM SKC
     FM011500 02010KT P6SM SKC=

USA.gov is the U.S. government's official web portal to all federal, state and local government web resources and services.